Location: Newark
(34.1333°N, 7.9667°W)
Time: 10:38:30
(UTC+00:00)

COSMOS 2251 DEB - Pass Details

Date: 27 February 2024
Orbit: 726 x 941 km, 73.7° (Epoch: 12 April)

Event Time Altitude Azimuth Distance (km) Brightness Sun altitude
Exits shadow 05:04:54 - 188° (S) 3,345 ? -25.4°
Reaches altitude 10° 05:06:47 10° 187° (S) 2,644 ? -25.0°
Maximum altitude 05:12:53 70° 105° (ESE) 983 ? -23.7°
Drops below altitude 10° 05:18:49 10° 23° (NNE) 2,576 ? -22.5°
Sets 05:21:16 0° 21° (NNE) 3,492 ? -22.0°
